Location: Unspecified
(0.0000°N, 0.0000°E)
Time: 07:51:04
(UTC+00:00)

Transit 4A - Pass Details

Date: 12 October 2023
Orbit: 864 x 979 km, 66.8° (Epoch: 05 December)

Event Time Altitude Azimuth Distance (km) Brightness Sun altitude
Rises 19:39:42 0° 316° (NW) 3,540 11.4 -28.0°
Reaches altitude 10° 19:42:42 10° 303° (WNW) 2,580 10.8 -28.8°
Maximum altitude 19:47:22 24° 251° (WSW) 1,761 10.0 -29.9°
Drops below altitude 10° 19:51:59 10° 198° (SSW) 2,533 10.4 -31.1°
Sets 19:54:56 0° 184° (S) 3,461 11.0 -31.8°
